Weather History for Zapata, TX

Change the Weather History Date:

Friday, January 25, 2013

  Actual Average (KLRD) Record (KLRD)
Temperature  
Mean Temperature 73 °F 57 °F  
Max Temperature 85 °F 68 °F 93 °F (1965)
Min Temperature 61 °F 47 °F 24 °F (1930)
Degree Days  
Heating Degree Days 0 9  
Month to date heating degree days 241  
Since 1 July heating degree days 631  
Cooling Degree Days 8 1  
Month to date cooling degree days 25  
Year to date cooling degree days 25  
Growing Degree Days 23 (Base 50)    
Moisture  
Dew Point 58 °F    
Average Humidity 68    
Maximum Humidity 95    
Minimum Humidity 30    
Precipitation  
Precipitation 0.00 in 0.03 in 1.47 in (1961)
Month to date precipitation 0.73  
Year to date precipitation 0.73  
Sea Level Pressure  
Sea Level Pressure 30.07 in    
Wind  
Wind Speed 6 mph (SE)    
Max Wind Speed 12 mph    
Max Gust Speed 17 mph    
Visibility 8 miles    
Events Fog    
T = Trace of Precipitation, MM = Missing Value Source: NWS Daily Summary

Daily Weather History Graph

Daily Weather History Graph

Search for Another Location

Airport:

Trip Planner

Search our weather history database for the weather conditions in past years. The results will help you decide how hot, cold, wet, or windy it might be!

Date:

Astronomy

Jan. 25, 2013 Rise Set
Actual Time 7:25 AM CST 6:13 PM CST
Civil Twilight 7:00 AM CST 6:38 PM CST
Nautical Twilight 6:32 AM CST 7:06 PM CST
Astronomical Twilight 6:04 AM CST 7:34 PM CST
Moon 5:11 PM CST (1/25) 6:05 AM CST (1/25)
Length of Visible Light 11h 37m
Length of Day
10h 48m
Waxing Gibbous, 98% of the Moon is Illuminated
Jan 25
Waxing Gibbous
Jan 26
Full
Feb 3
Last Quarter
Feb 10
New
Feb 17
First Quarter

Hourly Weather History & Observations

Time (CST) Temp. Heat Index Dew Point Humidity Pressure Visibility Wind Dir Wind Speed Gust Speed Precip Events Conditions
12:15 AM 66.4 °F - 61.7 °F 85% 30.14 in 10.0 mi SE 8.1 mph - N/A   Clear
12:35 AM 65.8 °F - 61.9 °F 87% 30.14 in 10.0 mi SE 5.8 mph - N/A   Clear
12:55 AM 65.3 °F - 61.9 °F 89% 30.14 in 10.0 mi SE 6.9 mph - N/A   Clear
1:15 AM 64.9 °F - 62.1 °F 90% 30.12 in 10.0 mi SE 8.1 mph - N/A   Clear
1:35 AM 64.6 °F - 61.9 °F 91% 30.12 in 10.0 mi SE 5.8 mph - N/A   Clear
1:55 AM 64.4 °F - 61.9 °F 92% 30.12 in 10.0 mi SE 5.8 mph - N/A   Clear
2:15 AM 64.0 °F - 61.7 °F 92% 30.11 in 10.0 mi SE 5.8 mph - N/A   Clear
2:35 AM 63.7 °F - 61.7 °F 93% 30.11 in 10.0 mi SE 5.8 mph - N/A   Clear
2:55 AM 63.5 °F - 61.2 °F 92% 30.11 in 10.0 mi SE 4.6 mph - N/A   Clear
3:15 AM 63.0 °F - 61.0 °F 93% 30.10 in 7.0 mi SE 5.8 mph - N/A   Clear
3:35 AM 62.8 °F - 61.0 °F 94% 30.10 in 7.0 mi SE 5.8 mph - N/A   Clear
3:55 AM 62.6 °F - 60.8 °F 94% 30.08 in 5.0 mi SE 6.9 mph - N/A   Clear
4:15 AM 62.2 °F - 60.6 °F 94% 30.08 in 5.0 mi SE 4.6 mph - N/A   Scattered Clouds
4:35 AM 61.9 °F - 60.3 °F 94% 30.08 in 4.0 mi ESE 4.6 mph - N/A   Scattered Clouds
4:55 AM 61.9 °F - 60.3 °F 94% 30.08 in 4.0 mi ESE 4.6 mph - N/A   Clear
5:15 AM 61.3 °F - 59.9 °F 95% 30.08 in 3.0 mi ESE 4.6 mph - N/A   Clear
5:35 AM 61.5 °F - 59.9 °F 94% 30.07 in 2.5 mi SE 6.9 mph - N/A   Mostly Cloudy
5:55 AM 61.9 °F - 60.3 °F 94% 30.08 in 2.5 mi SE 5.8 mph - N/A   Overcast
6:15 AM 62.4 °F - 60.8 °F 94% 30.08 in 0.8 mi SE 6.9 mph - N/A   Overcast
6:35 AM 62.8 °F - 61.3 °F 95% 30.08 in 0.5 mi SE 6.9 mph - N/A Fog Fog
6:55 AM 63.1 °F - 61.7 °F 95% 30.08 in 1.5 mi SE 10.4 mph 16.1 mph N/A   Overcast
7:35 AM 63.3 °F - 61.7 °F 94% 30.10 in 4.0 mi SE 11.5 mph - N/A   Overcast
7:55 AM 63.1 °F - 61.7 °F 95% 30.09 in 4.0 mi SSE 10.4 mph 17.3 mph N/A   Overcast
8:15 AM 63.5 °F - 61.9 °F 94% 30.10 in 4.0 mi SSE 8.1 mph - N/A   Overcast
8:35 AM 63.5 °F - 61.9 °F 94% 30.11 in 5.0 mi SE 6.9 mph - N/A   Overcast
8:55 AM 63.5 °F - 61.9 °F 94% 30.11 in 5.0 mi SE 10.4 mph - N/A   Overcast
9:15 AM 63.9 °F - 62.1 °F 94% 30.11 in 7.0 mi SSE 5.8 mph - N/A   Overcast
9:35 AM 64.6 °F - 62.2 °F 92% 30.12 in 7.0 mi SSE 8.1 mph - N/A   Overcast
9:55 AM 65.5 °F - 61.2 °F 86% 30.13 in 10.0 mi SE 6.9 mph - N/A   Overcast
10:15 AM 67.5 °F - 60.8 °F 79% 30.13 in 10.0 mi SE 6.9 mph - N/A   Overcast
10:35 AM 69.8 °F - 60.1 °F 71% 30.13 in 10.0 mi SE 4.6 mph - N/A   Mostly Cloudy
10:55 AM 70.9 °F - 59.9 °F 68% 30.13 in 10.0 mi SSE 3.5 mph - N/A   Scattered Clouds
11:15 AM 72.7 °F - 59.5 °F 63% 30.13 in 10.0 mi SSE 4.6 mph - N/A   Clear
11:35 AM 73.6 °F - 59.4 °F 61% 30.12 in 10.0 mi Calm Calm - N/A   Clear
11:55 AM 74.8 °F - 59.2 °F 58% 30.11 in 10.0 mi ESE 3.5 mph - N/A   Clear
12:15 PM 75.9 °F - 58.6 °F 55% 30.10 in 10.0 mi SSE 5.8 mph - N/A   Clear
12:35 PM 77.2 °F - 57.7 °F 51% 30.09 in 10.0 mi Calm Calm - N/A   Clear
12:55 PM 78.4 °F - 56.7 °F 47% 30.08 in 10.0 mi South 5.8 mph - N/A   Clear
1:15 PM 79.3 °F - 56.8 °F 46% 30.07 in 10.0 mi ESE 4.6 mph - N/A   Clear
1:35 PM 79.7 °F - 56.5 °F 45% 30.05 in 10.0 mi South 4.6 mph - N/A   Clear
1:55 PM 81.0 °F 80.8 °F 56.1 °F 42% 30.04 in 10.0 mi SE 4.6 mph - N/A   Clear
2:15 PM 82.6 °F 81.8 °F 55.2 °F 39% 30.03 in 10.0 mi SE 8.1 mph - N/A   Clear
2:35 PM 83.8 °F 82.6 °F 54.3 °F 36% 30.02 in 10.0 mi ESE 8.1 mph - N/A   Clear
2:55 PM 83.7 °F - 52.2 °F 34% 30.02 in 10.0 mi SE 10.4 mph - N/A   Clear
3:15 PM 84.6 °F - 52.0 °F 32% 30.01 in 10.0 mi SE 5.8 mph - N/A   Clear
3:35 PM 84.9 °F - 51.8 °F 32% 30.01 in 10.0 mi SE 4.6 mph - N/A   Clear
3:55 PM 85.3 °F - 51.3 °F 31% 30.00 in 10.0 mi ESE 4.6 mph - N/A   Clear
4:15 PM 85.1 °F - 50.5 °F 30% 30.00 in 10.0 mi SSE 3.5 mph - N/A   Clear
4:35 PM 85.3 °F - 50.5 °F 30% 30.00 in 10.0 mi ESE 6.9 mph - N/A   Clear
4:55 PM 84.9 °F - 50.5 °F 30% 30.00 in 10.0 mi ESE 6.9 mph - N/A   Clear
5:15 PM 84.2 °F - 50.7 °F 31% 30.00 in 10.0 mi SE 3.5 mph - N/A   Clear
5:35 PM 84.0 °F - 50.4 °F 31% 30.00 in 10.0 mi SE 3.5 mph - N/A   Clear
5:55 PM 82.8 °F - 51.4 °F 34% 30.01 in 10.0 mi SE 4.6 mph - N/A   Clear
6:15 PM 80.6 °F - 52.3 °F 37% 30.01 in 10.0 mi SSE 3.5 mph - N/A   Clear
6:35 PM 78.3 °F - 53.6 °F 42% 30.01 in 10.0 mi Calm Calm - N/A   Clear
6:55 PM 76.8 °F - 53.8 °F 45% 30.02 in 10.0 mi Calm Calm - N/A   Clear
7:15 PM 75.0 °F - 54.0 °F 48% 30.02 in 10.0 mi SSE 3.5 mph - N/A   Clear
7:35 PM 73.4 °F - 54.1 °F 51% 30.02 in 10.0 mi East 6.9 mph - N/A   Clear
7:55 PM 74.7 °F - 57.9 °F 56% 30.03 in 10.0 mi ESE 9.2 mph - N/A   Clear
8:15 PM 74.5 °F - 59.5 °F 60% 30.04 in 10.0 mi ESE 8.1 mph - N/A   Clear
8:35 PM 73.9 °F - 59.5 °F 61% 30.03 in 10.0 mi ESE 11.5 mph 17.3 mph N/A   Clear
8:55 PM 72.9 °F - 59.5 °F 63% 30.04 in 10.0 mi SE 6.9 mph - N/A   Clear
9:15 PM 72.0 °F - 59.5 °F 65% 30.04 in 10.0 mi SE 6.9 mph - N/A   Clear
9:35 PM 71.2 °F - 59.5 °F 66% 30.05 in 10.0 mi SE 10.4 mph - N/A   Clear
9:55 PM 70.3 °F - 59.4 °F 68% 30.05 in 10.0 mi ESE 8.1 mph - N/A   Clear
10:15 PM 69.8 °F - 59.4 °F 69% 30.06 in 10.0 mi SE 6.9 mph - N/A   Clear
10:35 PM 69.3 °F - 59.4 °F 71% 30.07 in 10.0 mi SE 8.1 mph - N/A   Clear
10:55 PM 68.9 °F - 59.4 °F 72% 30.07 in 10.0 mi ESE 8.1 mph - N/A   Clear
11:15 PM 68.2 °F - 59.4 °F 73% 30.06 in 10.0 mi ESE 8.1 mph - N/A   Clear
11:35 PM 67.6 °F - 59.4 °F 75% 30.06 in 10.0 mi ESE 8.1 mph - N/A   Clear
11:55 PM 67.3 °F - 59.4 °F 76% 30.06 in 10.0 mi SE 6.9 mph - N/A   Clear